Details From EDNY - Friedrichshafen
To LSZR - St.Gallen-Altenrhein
Flight Number -
Tags decoded
Created
Modified
Stats Distance 11 nm / 21 km
Max Altitude 0 ft / 0 m
Waypoints 2
Social Downloads 3
Likes 0
Share VATSIM

Download

Looking for another format? Having issues loading an existing format? Contact us
Advertisement - Login to hide

Notes

Requested: EDNY LSZR

Route

EDNY LSZR

ID Type Via Altitude Latitude Longitude Leg Dist Tot Dist Heading (true) Name
O EDNY APT - 0 ft / 0 m 47.67089˚ 9.50818˚ - 0 nm - Friedrichshafen
O LSZR APT - 0 ft / 0 m 47.48556˚ 9.56074˚ 11 nm 11 nm 169° / 169° St.Gallen-Altenrhein

Altitude Profile

Advertisement - Login to hide

EDNY

Details ICAO EDNY (FDH)
Name Friedrichshafen
Region Germany - Civil
Timezone Europe/Berlin (UTC+2.0)
Stats Elevation 1,367 ft / 417 m (AMSL)
Location 47.670891° 9.508175°
Runways 2
Magnetic Variation 2.639° E

METAR

EDNY 220420Z 04003KT CAVOK 10/09 Q1012

Decode

TAF

TAF EDNY 212300Z 2200/2224 03004KT CAVOK BECMG 2208/2210 23005KT BECMG 2216/2218 VRB03KT PROB40 TEMPO 2216/2224 22012KT 4000 TSRA SCT020 BKN030CB

Decode

Departure Runways

ID Width Length Bearing (true) Bearing (mag) Surface Threshold Offset Overrun Length
06 148 ft / 45 m 7,738 ft / 2,359 m 60.02° 57.38° Asphalt 869 ft / 265 m 0 ft / 0 m
06L 92 ft / 28 m 3,167 ft / 965 m 60.04° 57.40° Grass 0 ft / 0 m 0 ft / 0 m
24 148 ft / 45 m 7,738 ft / 2,359 m 240.04° 237.40° Asphalt 676 ft / 206 m 89 ft / 27 m
24R 92 ft / 28 m 3,167 ft / 965 m 240.04° 237.40° Grass 0 ft / 0 m 0 ft / 0 m

LSZR

Details ICAO LSZR (ACH)
Name St.Gallen-Altenrhein
Region Switzerland
Timezone Europe/Zurich (UTC+2.0)
Stats Elevation 1,306 ft / 398 m (AMSL)
Location 47.485559° 9.560741°
Runways 2
Magnetic Variation 2.649° E

METAR

LSZR 220420Z 22002KT CAVOK 10/09 Q1012 NOSIG RMK A

Decode

TAF

Not found

Destination Runways

ID Width Length Bearing (true) Bearing (mag) Surface Threshold Offset Overrun Length
10 98 ft / 30 m 4,909 ft / 1,496 m 98.79° 96.14° Asphalt 328 ft / 100 m 0 ft / 0 m
10L 75 ft / 23 m 1,970 ft / 601 m 98.80° 96.15° Grass 0 ft / 0 m 0 ft / 0 m
28 98 ft / 30 m 4,909 ft / 1,496 m 278.81° 276.16° Asphalt 246 ft / 75 m 0 ft / 0 m
28R 75 ft / 23 m 1,970 ft / 601 m 278.80° 276.15° Grass 0 ft / 0 m 0 ft / 0 m

Approach Navaids

Runway Type Ident Frequency Range Bearing (true) Bearing (mag) Slope Elevation
10 Localiser IAL 108.75 MHz 18 nm / 33 km 99.82° 97.17° - 1,306 ft / 398 m (AMSL)
10 Glidescope IAL 108.75 MHz 10 nm / 19 km 98.80° 96.15° 4.00° 1,333 ft / 406 m (AMSL)
10 DME IAL 108.75 MHz 18 nm / 33 km - - - 1,333 ft / 406 m (AMSL)

Popular Alternatives